Weather in Cha Am

Thailand     12°47′43″N   99°54′51″E
temp.,
°C
wind,
m/s
gust,
m/s
humid.,
%
clouds,
%
prec.,
mm/h
press.,
hPa
HPBL,
m
14 may, fri
fri1401:00+29s457146 0.0 1006304
04:00+28ssw347298 0.0 1005228
07:00+29ssw33715 0.0 1006266
10:00+32se22615 0.0 1007717
13:00+32se75625 0.0 1005987
16:00+32sse77615 0.0 1003655
19:00+30s68708 0.0 1005580
22:00+30s68716 0.1 1007398
15 may, sat
sat1501:00+29ssw45735 0.1 1006307
04:00+28ssw3475100 0.0 1005251
07:00+29ssw227197 0.0 1007221
10:00+31sse336121 0.0 1008701
13:00+32se656298 0.0 10061000
16:00+32sse77655 0.0 1004641
19:00+30sse67725 0.1 1005472
22:00+30s56725 0.1 1007391
16 may, sun
sun1601:00+29ssw45765 0.1 1006286
04:00+28ssw347710 0.0 1005230
07:00+29s33735 0.0 1007273
10:00+31sse44645 0.0 1008780
13:00+32se756325 0.0 1006891
16:00+32sse55627 0.0 1004741
19:00+30sse57733 0.2 1005434
22:00+30s57765 0.0 1007454
17 may, mon
mon1701:00+29s56773 0.0 1006407
04:00+28ssw458099 0.0 1005313
07:00+29ssw347698 0.0 1007262
10:00+32sse446227 0.0 1008791
13:00+32se756398 0.0 1006772
16:00+32se666383 0.0 1005878
19:00+31s576848 0.1 1005454
22:00+30s4573100 0.0 1007332
18 may, tue
tue1801:00+29ssw4577100 0.0 1006300
04:00+28ssw3477100 0.0 1005194
07:00+28sw2373100 0.0 1007228
10:00+32sse446167 0.0 1008809
13:00+32se766496 0.0 1006840
16:00+32se7765100 0.0 1004654
19:00+30se78759 0.1 1005503
22:00+30s6776100 0.4 1007463